TimeEDT,TemperatureF,Dew PointF,Humidity,Sea Level PressureIn,VisibilityMPH,Wind Direction,Wind SpeedMPH,Gust SpeedMPH,PrecipitationIn,Events,Conditions,WindDirDegrees,DateUTC
12:54 AM,66.0,51.1,59,30.10,10.0,NNE,3.5,-,N/A,,Partly Cloudy,20,2014-05-25 04:54:00
1:54 AM,62.1,53.1,72,30.10,10.0,Calm,Calm,-,N/A,,Clear,0,2014-05-25 05:54:00
2:54 AM,64.0,52.0,65,30.10,10.0,NNW,5.8,-,N/A,,Clear,340,2014-05-25 06:54:00
3:54 AM,63.0,51.1,65,30.10,10.0,West,3.5,-,N/A,,Overcast,280,2014-05-25 07:54:00
4:54 AM,61.0,52.0,72,30.10,10.0,Calm,Calm,-,N/A,,Clear,0,2014-05-25 08:54:00
5:54 AM,57.9,52.0,81,30.12,10.0,WSW,3.5,-,N/A,,Clear,240,2014-05-25 09:54:00
6:54 AM,60.1,52.0,75,30.14,10.0,West,3.5,-,N/A,,Clear,280,2014-05-25 10:54:00
7:54 AM,63.0,54.0,72,30.15,10.0,NNW,5.8,-,N/A,,Clear,340,2014-05-25 11:54:00
8:54 AM,66.0,55.0,68,30.16,10.0,NNW,4.6,-,N/A,,Clear,330,2014-05-25 12:54:00
9:54 AM,70.0,55.0,59,30.17,10.0,North,3.5,-,N/A,,Clear,350,2014-05-25 13:54:00
10:54 AM,73.0,53.1,49,30.17,10.0,NW,3.5,-,N/A,,Clear,320,2014-05-25 14:54:00
11:54 AM,70.0,59.0,68,30.17,10.0,SE,9.2,-,N/A,,Clear,140,2014-05-25 15:54:00
12:54 PM,71.1,59.0,66,30.15,10.0,ESE,11.5,-,N/A,,Scattered Clouds,120,2014-05-25 16:54:00
1:54 PM,73.9,51.1,45,30.13,10.0,SE,9.2,-,N/A,,Clear,140,2014-05-25 17:54:00
2:54 PM,73.9,55.0,52,30.12,10.0,SE,9.2,-,N/A,,Clear,130,2014-05-25 18:54:00
3:54 PM,75.0,52.0,44,30.11,10.0,SE,11.5,-,N/A,,Clear,130,2014-05-25 19:54:00
4:54 PM,75.0,53.1,46,30.11,10.0,SE,11.5,-,N/A,,Clear,140,2014-05-25 20:54:00
5:54 PM,75.0,54.0,48,30.10,10.0,South,6.9,-,N/A,,Clear,180,2014-05-25 21:54:00
6:54 PM,73.9,51.1,45,30.10,10.0,South,5.8,-,N/A,,Clear,170,2014-05-25 22:54:00
7:54 PM,72.0,51.1,48,30.11,10.0,South,4.6,-,N/A,,Clear,190,2014-05-25 23:54:00
8:54 PM,71.1,55.9,59,30.12,10.0,Calm,Calm,-,N/A,,Clear,0,2014-05-26 00:54:00
9:54 PM,70.0,54.0,57,30.13,10.0,Calm,Calm,-,N/A,,Clear,0,2014-05-26 01:54:00
10:54 PM,66.0,57.9,75,30.13,10.0,Calm,Calm,-,N/A,,Clear,0,2014-05-26 02:54:00
11:54 PM,66.0,57.9,75,30.13,10.0,Calm,Calm,-,N/A,,Clear,0,2014-05-26 03:54:00